Weather History for KMWM - June, 2014

Change the Weather History Date:

Sunday, June 22, 2014

  Actual Average Record
Temperature  
Mean Temperature 71 °F -  
Max Temperature 78 °F 81 °F 103 °F (1988)
Min Temperature 64 °F 56 °F 42 °F (2001)
Cooling Degree Days 6    
Growing Degree Days 21 (Base 50)    
Moisture  
Dew Point 63 °F    
Average Humidity 78    
Maximum Humidity 94    
Minimum Humidity 57    
Precipitation  
Precipitation 0.24 in - - ()
Sea Level Pressure  
Sea Level Pressure 29.86 in    
Wind  
Wind Speed 6 mph (NW)    
Max Wind Speed 26 mph    
Max Gust Speed 37 mph    
Visibility 10 miles    
Events Rain , Thunderstorm    
Averages and records for this station are not official NWS values.
T = Trace of Precipitation, MM = Missing Value Source: NWS Daily Summary

Daily Weather History Graph

Daily Weather History Graph

Search for Another Location

Airport or City:

Trip Planner

Search our weather history database for the weather conditions in past years. The results will help you decide how hot, cold, wet, or windy it might be!

Date:

Astronomy

Jun. 22, 2014 Rise Set
Actual Time 5:38 AM CDT 9:06 PM CDT
Civil Twilight 5:01 AM CDT 9:43 PM CDT
Nautical Twilight 4:14 AM CDT 10:30 PM CDT
Astronomical Twilight 3:13 AM CDT 11:31 PM CDT
Moon 2:34 AM CDT (6/22) 4:42 PM CDT (6/22)
Length of Visible Light 16h 41m
Length of Day
15h 28m
Waning Crescent, 20% of the Moon is Illuminated
Jun 22
Waning Crescent
Jun 27
New
Jul 5
First Quarter
Jul 12
Full
Jul 18
Last Quarter

Hourly Weather History & Observations

Time (CDT) Temp. Dew Point Humidity Pressure Visibility Wind Dir Wind Speed Gust Speed Precip Events Conditions
12:14 AM 73.4 °F 64.4 °F 73% 29.91 in 10.0 mi SSE 5.8 mph - N/A   Clear
12:34 AM 73.4 °F 64.4 °F 73% 29.91 in 10.0 mi SE 3.5 mph - N/A Thunderstorm Clear
12:53 AM 71.6 °F 64.4 °F 78% 29.91 in 10.0 mi Calm Calm - N/A   Clear
1:13 AM 71.6 °F 64.4 °F 78% 29.90 in 10.0 mi Calm Calm - N/A   Scattered Clouds
1:34 AM 71.6 °F 66.2 °F 83% 29.90 in 10.0 mi Calm Calm - N/A   Mostly Cloudy
1:53 AM 71.6 °F 66.2 °F 83% 29.90 in 10.0 mi NNW 6.9 mph - N/A   Overcast
2:13 AM 71.6 °F 64.4 °F 78% 29.90 in 10.0 mi NW 8.1 mph - N/A   Overcast
2:34 AM 69.8 °F 62.6 °F 78% 29.92 in 10.0 mi WNW 15.0 mph 18.4 mph N/A   Mostly Cloudy
2:53 AM 69.8 °F 62.6 °F 78% 29.96 in 10.0 mi WSW 26.5 mph 36.8 mph N/A Thunderstorm Overcast
3:13 AM 64.4 °F 60.8 °F 88% 29.91 in 10.0 mi NNW 13.8 mph 26.5 mph 0.19 in Rain , Thunderstorm Light Thunderstorms and Rain
3:34 AM 64.4 °F 60.8 °F 88% 29.89 in 10.0 mi North 15.0 mph 21.9 mph 0.21 in Rain Light Rain
3:53 AM 64.4 °F 60.8 °F 88% 29.88 in 10.0 mi NE 6.9 mph - 0.21 in   Light Drizzle
4:13 AM 64.4 °F 60.8 °F 88% 29.86 in 10.0 mi East 9.2 mph - N/A Rain Light Rain
4:33 AM 64.4 °F 62.6 °F 94% 29.85 in 10.0 mi Calm Calm - 0.01 in Rain Light Rain
4:54 AM 64.4 °F 62.6 °F 94% 29.83 in 10.0 mi Calm Calm - 0.01 in Rain Light Rain
5:14 AM 64.4 °F 62.6 °F 94% 29.83 in 10.0 mi SE 10.4 mph - 0.01 in Rain Light Rain
5:33 AM 66.2 °F 62.6 °F 88% 29.81 in 10.0 mi SE 18.4 mph - 0.02 in Rain , Thunderstorm Rain
5:54 AM 66.2 °F 62.6 °F 88% 29.82 in 10.0 mi SE 4.6 mph 23.0 mph 0.02 in Rain Light Rain
6:14 AM 66.2 °F 62.6 °F 88% 29.82 in 10.0 mi East 3.5 mph - N/A   Clear
6:33 AM 64.4 °F 62.6 °F 94% 29.82 in 10.0 mi Calm Calm - N/A   Clear
6:54 AM 64.4 °F 62.6 °F 94% 29.82 in 10.0 mi Calm Calm - N/A   Clear
7:13 AM 66.2 °F 62.6 °F 88% 29.84 in 10.0 mi NW 4.6 mph - N/A   Clear
7:33 AM 66.2 °F 64.4 °F 94% 29.85 in 10.0 mi Calm Calm - N/A   Scattered Clouds
7:54 AM 66.2 °F 62.6 °F 88% 29.85 in 10.0 mi Calm Calm - N/A   Scattered Clouds
8:13 AM 69.8 °F 64.4 °F 83% 29.86 in 10.0 mi Calm Calm - N/A   Clear
8:34 AM 69.8 °F 64.4 °F 83% 29.87 in 10.0 mi Calm Calm - N/A   Clear
8:53 AM 69.8 °F 62.6 °F 78% 29.89 in 10.0 mi West 5.8 mph - N/A   Clear
9:13 AM 69.8 °F 62.6 °F 78% 29.89 in 10.0 mi Calm Calm - N/A   Clear
9:33 AM 69.8 °F 62.6 °F 78% 29.90 in 10.0 mi Calm Calm - N/A   Scattered Clouds
9:53 AM 69.8 °F 62.6 °F 78% 29.90 in 10.0 mi SW 3.5 mph - N/A   Scattered Clouds
10:14 AM 69.8 °F 62.6 °F 78% 29.89 in 10.0 mi SW 4.6 mph - N/A   Mostly Cloudy
10:33 AM 69.8 °F 62.6 °F 78% 29.88 in 10.0 mi SW 3.5 mph - N/A   Scattered Clouds
10:53 AM 71.6 °F 62.6 °F 73% 29.87 in 10.0 mi WSW 3.5 mph - N/A   Scattered Clouds
11:14 AM 69.8 °F 62.6 °F 78% 29.87 in 10.0 mi WSW 6.9 mph - N/A   Mostly Cloudy
11:33 AM 71.6 °F 62.6 °F 73% 29.86 in 10.0 mi West 6.9 mph - N/A   Overcast
11:53 AM 71.6 °F 62.6 °F 73% 29.86 in 10.0 mi West 6.9 mph - N/A   Overcast
12:14 PM 73.4 °F 64.4 °F 73% 29.85 in 10.0 mi West 6.9 mph - N/A   Mostly Cloudy
12:33 PM 73.4 °F 64.4 °F 73% 29.85 in 10.0 mi West 5.8 mph - N/A   Scattered Clouds
12:53 PM 73.4 °F 64.4 °F 73% 29.85 in 10.0 mi West 10.4 mph - N/A   Scattered Clouds
1:14 PM 73.4 °F 64.4 °F 73% 29.85 in 10.0 mi WNW 11.5 mph - N/A   Scattered Clouds
1:33 PM 73.4 °F 64.4 °F 73% 29.85 in 10.0 mi NW 11.5 mph - N/A   Clear
1:53 PM 73.4 °F 64.4 °F 73% 29.85 in 10.0 mi WNW 9.2 mph - N/A   Clear
2:13 PM 73.4 °F 64.4 °F 73% 29.85 in 10.0 mi NW 10.4 mph - N/A   Clear
2:33 PM 75.2 °F 64.4 °F 69% 29.85 in 10.0 mi NW 6.9 mph - N/A   Clear
2:54 PM 77.0 °F 64.4 °F 65% 29.85 in 10.0 mi NNW 11.5 mph 16.1 mph N/A   Scattered Clouds
3:13 PM 75.2 °F 62.6 °F 65% 29.86 in 10.0 mi NNW 12.7 mph - N/A   Scattered Clouds
3:33 PM 78.8 °F 62.6 °F 57% 29.86 in 10.0 mi NW 9.2 mph - N/A   Scattered Clouds
3:54 PM 77.0 °F 60.8 °F 57% 29.86 in 10.0 mi North 11.5 mph - N/A   Scattered Clouds
4:13 PM 75.2 °F 62.6 °F 65% 29.85 in 10.0 mi NNW 11.5 mph - N/A   Clear
4:33 PM 75.2 °F 62.6 °F 65% 29.85 in 10.0 mi NNW 10.4 mph - N/A   Clear
4:54 PM 77.0 °F 64.4 °F 65% 29.85 in 10.0 mi NNW 10.4 mph 16.1 mph N/A   Clear
5:13 PM 77.0 °F 62.6 °F 61% 29.85 in 10.0 mi NNW 8.1 mph - N/A   Clear
5:33 PM 78.8 °F 62.6 °F 57% 29.85 in 10.0 mi NNW 9.2 mph - N/A   Clear
5:54 PM 77.0 °F 64.4 °F 65% 29.85 in 10.0 mi NW 9.2 mph - N/A   Clear
6:13 PM 75.2 °F 62.6 °F 65% 29.85 in 10.0 mi NW 9.2 mph - N/A   Clear
6:33 PM 77.0 °F 64.4 °F 65% 29.85 in 10.0 mi NNW 8.1 mph - N/A   Clear
6:54 PM 77.0 °F 64.4 °F 65% 29.85 in 10.0 mi NNW 5.8 mph - N/A   Clear
7:13 PM 77.0 °F 64.4 °F 65% 29.84 in 10.0 mi NNW 6.9 mph - N/A   Clear
7:33 PM 75.2 °F 64.4 °F 69% 29.83 in 10.0 mi NNW 8.1 mph - N/A   Clear
7:54 PM 75.2 °F 64.4 °F 69% 29.83 in 10.0 mi North 6.9 mph - N/A   Clear
8:13 PM 75.2 °F 64.4 °F 69% 29.83 in 10.0 mi North 5.8 mph - N/A   Clear
8:33 PM 73.4 °F 64.4 °F 73% 29.83 in 10.0 mi North 5.8 mph - N/A   Clear
8:53 PM 71.6 °F 64.4 °F 78% 29.83 in 10.0 mi NW 5.8 mph - N/A   Clear
9:13 PM 69.8 °F 64.4 °F 83% 29.84 in 10.0 mi NW 4.6 mph - N/A   Clear
9:34 PM 69.8 °F 64.4 °F 83% 29.85 in 10.0 mi NW 4.6 mph - N/A   Clear
9:53 PM 69.8 °F 64.4 °F 83% 29.85 in 10.0 mi WNW 4.6 mph - N/A   Clear
10:13 PM 69.8 °F 64.4 °F 83% 29.85 in 10.0 mi WNW 4.6 mph - N/A   Clear
10:34 PM 68.0 °F 64.4 °F 88% 29.86 in 10.0 mi West 5.8 mph - N/A   Clear
10:53 PM 68.0 °F 64.4 °F 88% 29.86 in 10.0 mi WNW 6.9 mph - N/A   Clear
11:13 PM 68.0 °F 64.4 °F 88% 29.86 in 10.0 mi WNW 5.8 mph - N/A   Clear
11:34 PM 68.0 °F 64.4 °F 88% 29.86 in 10.0 mi NW 4.6 mph - N/A   Clear
11:53 PM 66.2 °F 64.4 °F 94% 29.87 in 10.0 mi West 3.5 mph - N/A   Clear